Hourly Weather Roundup
Issued by NWS Central Illinois

Home | Current Version | Previous Version | Text Only | Print | Product List | Glossary On
Versions: 1 2 3 4 5 6 7 8 9 10 11 12 13 14 15 16 17 18 19 20 21 22 23 24 25 26 27 28 29 30 31 32 33 34 35 36 37 38 39 40 41 42 43 44 45 46 47 48 49 50
000
NZUS43 KILX 310010
HWRILX

AREA WEATHER ROUNDUP
NATIONAL WEATHER SERVICE, LINCOLN IL
700 PM CDT THU JUL 30 2015


CITY           SKY/WX    TMP DP  RH WIND       PRES   REMARKS
BLOOMINGTON    SUNNY     84  64  50 W12       30.07F HX  85
6HR MIN TEMP:  84; 6HR MAX TEMP:  88;

CHAMPAIGN      SUNNY     82  67  60 W5        30.06F HX  84
6HR MIN TEMP:  82; 6HR MAX TEMP:  86;

DANVILLE       SUNNY     79  65  62 W5        30.03F HX  81
6HR MIN TEMP:  79; 6HR MAX TEMP:  84;

DECATUR        SUNNY     85  61  44 W10       30.07S HX  85
6HR MIN TEMP:  85; 6HR MAX TEMP:  89;

EFFINGHAM      MOSUNNY   84  60  43 W7        30.08F HX  84
FLORA          MOSUNNY   81  63  53 NW6       30.08S HX  82
6HR MIN TEMP:  81; 6HR MAX TEMP:  87;

GALESBURG      SUNNY     82  67  60 W7        30.07F HX  85
JACKSONVILLE   SUNNY     85  67  56 W5        30.09S HX  87
6HR MIN TEMP:  85; 6HR MAX TEMP:  89;

LACON          SUNNY     83  65  53 W9        30.03F HX  85
6HR MIN TEMP:  83; 6HR MAX TEMP:  87;

LAWRENCEVILLE  MOSUNNY   83  65  54 W6        30.06F HX  85
6HR MIN TEMP:  83; 6HR MAX TEMP:  88;

LITCHFIELD     MOSUNNY   81  66  60 W5        30.10S HX  83
$$


CITY           SKY/WX    TMP DP  RH WIND       PRES   REMARKS
LINCOLN        SUNNY     86  61  42 W5        30.05F HX  86
6HR MIN TEMP:  86; 6HR MAX TEMP:  91;

MACOMB         SUNNY     83  66  57 W6        30.10S HX  85
MATTOON        SUNNY     83  62  49 W7        30.06F HX  84
6HR MIN TEMP:  83; 6HR MAX TEMP:  89;

MT CARMEL AP   MOSUNNY   82  64  54 NW3       30.06S HX  84
OLNEY-NOBLE AP MOSUNNY   79  68  69 W3        30.07F HX  81
PARIS          SUNNY     83  65  56 NW3       30.06F HX  84
6HR MIN TEMP:  83; 6HR MAX TEMP:  87;

PEORIA         SUNNY     86  63  45 NW10      30.06F HX  87
6HR MIN TEMP:  86; 6HR MAX TEMP:  90;

PONTIAC        SUNNY     82  70  67 W7        30.05F HX  86
RANTOUL        SUNNY     84  66  54 W5        30.06S HX  86
ROBINSON       MOSUNNY   82  67  60 W5        30.07S HX  84
6HR MIN TEMP:  82; 6HR MAX TEMP:  86;

SPRINGFIELD    SUNNY     84  66  54 W8        30.07F HX  86
6HR MIN TEMP:  84; 6HR MAX TEMP:  88;

TAYLORVILLE    SUNNY     81  64  57 W6        30.08S HX  82
$$

...REGIONAL REPORTS...


CITY           SKY/WX    TMP DP  RH WIND       PRES   REMARKS
CHICAGO O`HARE MOSUNNY   85  52  32 W14       29.99F HX  83
KANKAKEE       SUNNY     83  65  53 W5        30.03F HX  85
MOLINE         SUNNY     85  64  49 W12       30.04F HX  86
MOUNT STERLING NOT AVBL
MOUNT VERNON   MOSUNNY   82  63  51 CALM      30.09S HX  83
PITTSFIELD     MOSUNNY   85  64  48 W5        30.11S HX  86
QUINCY         SUNNY     84  64  50 W6        30.10F HX  85
ROCKFORD       SUNNY     84  61  45 W9        30.02F HX  84
$$


CITY           SKY/WX    TMP DP  RH WIND       PRES   REMARKS
BURLINGTON     SUNNY     84  65  52 NW6       30.07F HX  86
CEDAR RAPIDS   SUNNY     81  71  71 W8        30.06F HX  85
DES MOINES     MOSUNNY   85  63  47 W7        30.09F HX  86
KIRKSVILLE     SUNNY     84  64  50 W5        30.13F HX  85
OTTUMWA        SUNNY     81  65  58 W7        30.08F HX  83
ST LOUIS       PTSUNNY   87  62  43 NW7       30.11S HX  87
$$


CITY           SKY/WX    TMP DP  RH WIND       PRES   REMARKS
TERRE HAUTE    SUNNY     83  60  45 NW9       30.05F HX  83
EVANSVILLE     MOSUNNY   84  62  47 NW3       30.06F HX  85
INDIANAPOLIS   MOSUNNY   82  56  40 NW9       30.04F HX  82
LAFAYETTE      SUNNY     80  61  52 W6        30.02F HX  81
MADISON        SUNNY     83  54  36 W8G20     29.99F HX  82
MILWAUKEE      MOSUNNY   86  49  27 NW14      29.96F HX  83
$$




USA.gov is the U.S. government's official web portal to all federal, state and local government web resources and services.